EW8275 Weather Reports


Display with metric or nautical units.
time (UTC)temp
F
wind
direction
speed
MPH
gust
MPH
rain 1hr
in
rain 24hr
in
rain mn
in
humidity
%
barometer
mb
20260906220607 63 173 0.0 2.0 0.00 0.00 0.00 74 1018.6
20260906220022 63 195 0.0 3.0 0.00 0.00 0.00 74 1018.6
20260906215556 63 202 1.0 3.0 0.00 0.00 0.00 74 1018.7
20260906215031 63 148 0.0 1.0 0.00 0.00 0.00 75 1018.6
20260906214532 63 148 0.0 2.0 0.00 0.00 0.00 74 1018.7
20260906214032 63 148 0.0 2.0 0.00 0.00 0.00 75 1018.7
20260906213525 64 148 0.0 1.0 0.00 0.00 0.00 74 1018.8
20260906213028 64 148 0.0 1.0 0.00 0.00 0.00 72 1018.9
20260906212523 64 148 0.0 1.0 0.00 0.00 0.00 71 1018.8
20260906212025 64 146 0.0 1.0 0.00 0.00 0.00 71 1018.9
20260906211515 64 146 0.0 1.0 0.00 0.00 0.00 71 1019.0
20260906211012 65 146 0.0 2.0 0.00 0.00 0.00 71 1019.1
20260906210521 65 146 0.0 2.0 0.00 0.00 0.00 70 1019.1
20260906210032 65 188 1.0 2.0 0.00 0.00 0.00 69 1019.2
20260906205543 65 175 1.0 2.0 0.00 0.00 0.00 69 1019.2
20260906205023 66 136 0.0 1.0 0.00 0.00 0.00 68 1019.1
20260906204537 66 136 1.0 2.0 0.00 0.00 0.00 67 1019.2
20260906204053 66 149 0.0 2.0 0.00 0.00 0.00 67 1019.3
20260906203531 66 180 1.0 2.0 0.00 0.00 0.00 67 1019.3
20260906203015 66 174 1.0 2.0 0.00 0.00 0.00 68 1019.3
20260906202524 66 150 0.0 2.0 0.00 0.00 0.00 68 1019.2
20260906202031 66 99 1.0 3.0 0.00 0.00 0.00 68 1019.1
20260906201046 66 180 0.0 1.0 0.00 0.00 0.00 67 1019.4
20260906200547 66 180 0.0 2.0 0.00 0.00 0.00 67 1019.5
20260906200027 66 180 0.0 2.0 0.00 0.00 0.00 67 1019.6
20260906195517 66 121 1.0 2.0 0.00 0.00 0.00 68 1019.6
20260906195017 66 121 0.0 1.0 0.00 0.00 0.00 69 1019.6
20260906194546 66 121 0.0 1.0 0.00 0.00 0.00 69 1019.6
20260906194034 66 121 0.0 1.0 0.00 0.00 0.00 68 1019.6
20260906193537 66 121 0.0 2.0 0.00 0.00 0.00 69 1019.7
20260906193023 66 121 1.0 2.0 0.00 0.00 0.00 69 1019.7
20260906192533 66 121 0.0 2.0 0.00 0.00 0.00 68 1019.8
20260906192036 66 121 0.0 2.0 0.00 0.00 0.00 67 1019.8
20260906191537 66 121 0.0 1.0 0.00 0.00 0.00 67 1019.8
20260906191034 66 121 0.0 2.0 0.00 0.00 0.00 68 1019.8
20260906190536 67 121 1.0 2.0 0.00 0.00 0.00 67 1019.9
20260906190028 67 121 0.0 3.0 0.00 0.00 0.00 67 1019.9
20260906185541 66 121 1.0 3.0 0.00 0.00 0.00 68 1019.8
20260906185044 66 121 1.0 2.0 0.00 0.00 0.00 68 1019.9
20260906184529 66 121 0.0 2.0 0.00 0.00 0.00 68 1020.1
20260906184032 67 121 1.0 2.0 0.00 0.00 0.00 68 1020.0
20260906183544 67 121 0.0 1.0 0.00 0.00 0.00 68 1020.1
20260906183022 67 121 0.0 0.0 0.00 0.00 0.00 68 1020.2
20260906182532 67 121 0.0 1.0 0.00 0.00 0.00 68 1020.2
20260906182037 67 121 0.0 1.0 0.00 0.00 0.00 69 1020.1
20260906181541 67 121 0.0 1.0 0.00 0.00 0.00 68 1020.2
20260906181018 67 121 0.0 2.0 0.00 0.00 0.00 69 1020.2
20260906180522 67 119 0.0 1.0 0.00 0.00 0.00 68 1020.2
20260906180025 67 119 0.0 2.0 0.00 0.00 0.00 69 1020.2
20260906175520 68 119 0.0 2.0 0.00 0.00 0.00 69 1020.2
20260906175037 68 119 0.0 2.0 0.00 0.00 0.00 69 1020.2
20260906174534 68 119 1.0 2.0 0.00 0.00 0.00 69 1020.2
20260906174038 68 232 0.0 1.0 0.00 0.00 0.00 66 1020.5
20260906173523 69 232 0.0 1.0 0.00 0.00 0.00 66 1020.6
20260906173023 69 232 0.0 1.0 0.00 0.00 0.00 63 1020.6
20260906172527 70 232 0.0 1.0 0.00 0.00 0.00 62 1020.7
20260906172031 71 232 0.0 2.0 0.00 0.00 0.00 58 1020.7
20260906171536 71 232 1.0 3.0 0.00 0.00 0.00 57 1020.7
20260906171037 72 173 1.0 3.0 0.00 0.00 0.00 57 1020.8
20260906170518 72 173 0.0 3.0 0.00 0.00 0.00 56 1020.8
20260906170026 71 139 0.0 2.0 0.00 0.00 0.00 57 1020.9
20260906165542 72 233 1.0 2.0 0.00 0.00 0.00 58 1021.0
20260906165026 72 206 1.0 2.0 0.00 0.00 0.00 56 1021.1
20260906164519 72 191 0.0 4.0 0.00 0.00 0.00 54 1021.1
20260906164027 72 180 1.0 4.0 0.00 0.00 0.00 54 1021.1
20260906163524 72 186 1.0 5.0 0.00 0.00 0.00 54 1021.1
20260906163017 72 182 2.0 5.0 0.00 0.00 0.00 53 1021.1
20260906162528 72 144 1.0 5.0 0.00 0.00 0.00 55 1021.2
20260906162018 73 161 1.0 6.0 0.00 0.00 0.00 53 1021.3
20260906161605 73 137 2.0 7.0 0.00 0.00 0.00 51 1021.3
20260906161021 73 159 3.0 7.0 0.00 0.00 0.00 53 1021.3
20260906160531 73 156 2.0 4.0 0.00 0.00 0.00 53 1021.4
20260906160018 73 180 1.0 3.0 0.00 0.00 0.00 53 1021.5
20260906155526 72 170 1.0 6.0 0.00 0.00 0.00 54 1021.5
20260906155031 72 213 1.0 6.0 0.00 0.00 0.00 53 1021.6
20260906154527 72 201 3.0 6.0 0.00 0.00 0.00 52 1021.6
20260906154015 72 248 2.0 5.0 0.00 0.00 0.00 52 1021.6
20260906153537 72 120 1.0 6.0 0.00 0.00 0.00 55 1021.5
20260906153048 73 189 3.0 9.0 0.00 0.00 0.00 52 1021.5
20260906152534 73 202 2.0 7.0 0.00 0.00 0.00 53 1021.5
20260906152023 73 228 2.0 8.0 0.00 0.00 0.00 52 1021.6
20260906151521 73 175 3.0 8.0 0.00 0.00 0.00 50 1021.5
20260906151018 73 119 1.0 7.0 0.00 0.00 0.00 53 1021.5
20260906150527 72 167 3.0 7.0 0.00 0.00 0.00 51 1021.6
20260906150039 73 165 2.0 8.0 0.00 0.00 0.00 51 1021.7
20260906145526 73 96 2.0 7.0 0.00 0.00 0.00 51 1021.8
20260906145029 73 219 2.0 7.0 0.00 0.00 0.00 52 1021.9
20260906144539 73 171 3.0 8.0 0.00 0.00 0.00 50 1022.0
20260906144043 73 184 4.0 8.0 0.00 0.00 0.00 50 1021.9
20260906143529 73 216 1.0 6.0 0.00 0.00 0.00 52 1021.9
20260906143039 73 222 2.0 9.0 0.00 0.00 0.00 51 1022.0
20260906142527 73 192 3.0 9.0 0.00 0.00 0.00 50 1022.0
20260906142038 73 90 3.0 9.0 0.00 0.00 0.00 50 1022.2
20260906141519 73 219 3.0 9.0 0.00 0.00 0.00 51 1022.3
20260906141035 74 202 3.0 8.0 0.00 0.00 0.00 50 1022.3
20260906140543 74 198 3.0 7.0 0.00 0.00 0.00 50 1022.3
20260906140022 73 161 4.0 7.0 0.00 0.00 0.00 51 1022.3
20260906135535 73 122 2.0 6.0 0.00 0.00 0.00 55 1022.2
20260906135038 73 115 2.0 9.0 0.00 0.00 0.00 53 1022.4
20260906134524 73 163 3.0 9.0 0.00 0.00 0.00 50 1022.5
20260906134024 74 82 2.0 11.0 0.00 0.00 0.00 54 1022.5
20260906133545 73 189 4.0 11.0 0.00 0.00 0.00 52 1022.5
20260906133022 73 103 3.0 8.0 0.00 0.00 0.00 51 1022.6
20260906132530 74 202 2.0 6.0 0.00 0.00 0.00 50 1022.7
20260906132044 74 69 2.0 7.0 0.00 0.00 0.00 50 1022.7
20260906131520 74 165 2.0 8.0 0.00 0.00 0.00 53 1022.8
20260906131031 73 113 2.0 8.0 0.00 0.00 0.00 52 1022.9
20260906130545 73 204 4.0 7.0 0.00 0.00 0.00 54 1023.0
20260906130032 72 140 3.0 9.0 0.00 0.00 0.00 56 1023.1
20260906125605 71 200 3.0 9.0 0.00 0.00 0.00 56 1023.2
20260906125050 71 184 1.0 8.0 0.00 0.00 0.00 55 1023.3
20260906124534 71 193 3.0 7.0 0.00 0.00 0.00 56 1023.3
20260906124024 71 196 2.0 6.0 0.00 0.00 0.00 56 1023.3
20260906123531 70 169 3.0 6.0 0.00 0.00 0.00 55 1023.3
20260906123048 71 119 2.0 7.0 0.00 0.00 0.00 57 1023.3
20260906122524 71 123 1.0 7.0 0.00 0.00 0.00 57 1023.4
20260906122022 71 175 1.0 7.0 0.00 0.00 0.00 55 1023.4
20260906121532 72 207 3.0 8.0 0.00 0.00 0.00 53 1023.4
20260906121054 72 177 2.0 10.0 0.00 0.00 0.00 54 1023.4
20260906120529 72 157 2.0 7.0 0.00 0.00 0.00 56 1023.6
20260906120040 72 123 3.0 8.0 0.00 0.00 0.00 54 1023.6
20260906115527 72 138 3.0 8.0 0.00 0.00 0.00 55 1023.6
20260906115026 72 187 3.0 7.0 0.00 0.00 0.00 58 1023.6
20260906114539 72 177 4.0 7.0 0.00 0.00 0.00 55 1023.6
20260906114021 72 112 2.0 7.0 0.00 0.00 0.00 55 1023.7
20260906113553 73 199 3.0 7.0 0.00 0.00 0.00 56 1023.7
20260906113021 72 74 3.0 7.0 0.00 0.00 0.00 59 1023.8
20260906112548 72 215 3.0 9.0 0.00 0.00 0.00 58 1023.9
20260906112043 72 144 4.0 9.0 0.00 0.00 0.00 56 1023.9
20260906111523 72 206 3.0 7.0 0.00 0.00 0.00 55 1023.9
20260906111031 72 154 2.0 7.0 0.00 0.00 0.00 58 1024.0
20260906110520 71 202 3.0 7.0 0.00 0.00 0.00 57 1024.1
20260906110014 69 190 2.0 7.0 0.00 0.00 0.00 60 1024.2
20260906105530 70 81 2.0 9.0 0.00 0.00 0.00 60 1024.1
20260906105013 71 250 4.0 9.0 0.00 0.00 0.00 58 1024.2
20260906104526 71 268 3.0 7.0 0.00 0.00 0.00 61 1024.3
20260906104042 69 179 3.0 7.0 0.00 0.00 0.00 62 1024.3
20260906103539 69 177 3.0 7.0 0.00 0.00 0.00 63 1024.4
20260906103029 68 207 3.0 6.0 0.00 0.00 0.00 66 1024.4
20260906102533 68 205 2.0 6.0 0.00 0.00 0.00 64 1024.6
20260906102055 68 159 2.0 6.0 0.00 0.00 0.00 64 1024.8
20260906101538 68 134 3.0 8.0 0.00 0.00 0.00 65 1024.8
20260906101021 68 236 2.0 5.0 0.00 0.00 0.00 66 1024.8
20260906100536 68 127 3.0 6.0 0.00 0.00 0.00 66 1024.8
20260906100031 68 180 3.0 9.0 0.00 0.00 0.00 66 1024.9
20260906095537 68 97 2.0 9.0 0.00 0.00 0.00 65 1024.7
20260906095018 68 182 3.0 8.0 0.00 0.00 0.00 66 1024.8
20260906094536 68 80 3.0 6.0 0.00 0.00 0.00 63 1024.8
20260906094022 68 186 1.0 9.0 0.00 0.00 0.00 66 1024.9
20260906093531 68 116 4.0 9.0 0.00 0.00 0.00 64 1024.9
20260906093033 69 174 4.0 6.0 0.00 0.00 0.00 68 1025.0
20260906092530 67 199 2.0 8.0 0.00 0.00 0.00 67 1025.0
20260906092017 67 162 4.0 8.0 0.00 0.00 0.00 68 1025.2
20260906091535 67 140 3.0 8.0 0.00 0.00 0.00 69 1025.2
20260906091038 67 141 3.0 8.0 0.00 0.00 0.00 70 1025.3
20260906090624 66 124 4.0 9.0 0.00 0.00 0.00 70 1025.3
20260906090135 65 156 4.0 9.0 0.00 0.00 0.00 71 1025.4
20260906085649 65 157 2.0 6.0 0.00 0.00 0.00 73 1025.4
20260906085135 65 190 3.0 6.0 0.00 0.00 0.00 74 1025.4
20260906084632 64 195 3.0 6.0 0.00 0.00 0.00 77 1025.5
20260906084203 64 107 3.0 7.0 0.00 0.00 0.00 76 1025.4
20260906083635 63 205 2.0 10.0 0.00 0.00 0.00 76 1025.5
20260906083132 63 273 3.0 10.0 0.00 0.00 0.00 77 1025.5
20260906082645 63 100 2.0 5.0 0.00 0.00 0.00 79 1025.5
20260906082114 62 123 2.0 5.0 0.00 0.00 0.00 80 1025.4
20260906081645 62 201 1.0 5.0 0.00 0.00 0.00 80 1025.4
20260906081200 62 179 2.0 6.0 0.00 0.00 0.00 81 1025.4
20260906080631 61 153 3.0 6.0 0.00 0.00 0.00 81 1025.3
20260906080137 61 171 3.0 6.0 0.00 0.00 0.00 81 1025.3
20260906075620 61 168 3.0 5.0 0.00 0.00 0.00 82 1025.4
20260906075128 60 115 1.0 4.0 0.00 0.00 0.00 83 1025.4
20260906074642 60 201 2.0 4.0 0.00 0.00 0.00 83 1025.5
20260906074128 60 169 1.0 4.0 0.00 0.00 0.00 84 1025.5
20260906073631 59 145 1.0 5.0 0.00 0.00 0.00 84 1025.5
20260906073128 59 212 2.0 5.0 0.00 0.00 0.00 85 1025.5
20260906072641 59 142 2.0 5.0 0.00 0.00 0.00 85 1025.6
20260906072136 58 176 1.0 5.0 0.00 0.00 0.00 86 1025.6
20260906071624 58 200 2.0 5.0 0.00 0.00 0.00 86 1025.8
20260906071127 58 223 2.0 4.0 0.00 0.00 0.00 87 1025.8
20260906070642 57 186 2.0 4.0 0.00 0.00 0.00 87 1025.7
20260906070145 57 216 2.0 4.0 0.00 0.00 0.00 88 1025.7
20260906065705 57 169 2.0 5.0 0.00 0.00 0.00 88 1025.6
20260906065203 57 210 2.0 5.0 0.00 0.00 0.00 88 1025.6
20260906064702 57 180 2.0 5.0 0.00 0.00 0.00 88 1025.6
20260906064111 57 104 2.0 5.0 0.00 0.00 0.00 88 1025.6
20260906063621 57 188 2.0 6.0 0.00 0.00 0.00 88 1025.7
20260906063114 57 165 2.0 6.0 0.00 0.00 0.00 89 1025.6
20260906062620 56 182 2.0 7.0 0.00 0.00 0.00 89 1025.6
20260906062124 56 182 2.0 7.0 0.00 0.00 0.00 90 1025.5
20260906061620 56 175 1.0 4.0 0.00 0.00 0.00 91 1025.5
20260906061126 55 209 1.0 4.0 0.00 0.00 0.00 91 1025.4
20260906060621 55 189 2.0 4.0 0.00 0.00 0.00 91 1025.4
20260906060113 55 137 1.0 5.0 0.00 0.00 0.00 92 1025.3
20260906055625 55 174 1.0 5.0 0.00 0.00 0.00 92 1025.4
20260906055131 54 167 1.0 3.0 0.00 0.00 0.00 92 1025.4
20260906054618 54 151 2.0 4.0 0.00 0.00 0.00 93 1025.4
20260906054132 54 180 2.0 4.0 0.00 0.00 0.00 93 1025.3
20260906053650 54 165 1.0 4.0 0.00 0.00 0.00 93 1025.3
20260906053136 54 155 2.0 4.0 0.00 0.00 0.00 93 1025.4
20260906052622 54 159 2.0 4.0 0.00 0.00 0.00 93 1025.4
20260906052144 54 186 2.0 4.0 0.00 0.00 0.00 93 1025.3
20260906051640 54 178 2.0 3.0 0.00 0.00 0.00 93 1025.2
20260906051124 54 173 1.0 3.0 0.00 0.00 0.00 93 1025.4
20260906050620 53 144 1.0 4.0 0.00 0.00 0.00 93 1025.2
20260906050143 53 203 2.0 4.0 0.00 0.00 0.00 94 1025.3
20260906045638 53 144 2.0 4.0 0.00 0.00 0.00 93 1025.2
20260906045121 53 167 2.0 3.0 0.00 0.00 0.00 93 1025.0
20260906044640 54 152 1.0 3.0 0.00 0.00 0.00 94 1025.1
20260906044135 54 171 1.0 3.0 0.00 0.00 0.00 94 1025.1
20260906043641 54 167 1.0 4.0 0.00 0.00 0.00 94 1025.2
20260906043131 54 175 2.0 4.0 0.00 0.00 0.00 94 1025.2
20260906042656 54 169 1.0 4.0 0.00 0.00 0.00 94 1025.3
20260906042119 54 219 1.0 4.0 0.00 0.00 0.00 94 1025.3
20260906041636 54 167 2.0 4.0 0.00 0.00 0.00 94 1025.3
20260906041203 54 178 2.0 3.0 0.00 0.00 0.00 94 1025.2
20260906040617 54 171 2.0 3.0 0.00 0.00 0.00 94 1025.3
20260906040119 54 146 1.0 4.0 0.00 0.00 0.00 94 1025.5
20260906035652 54 131 1.0 4.0 0.00 0.00 0.00 95 1025.4
20260906035134 54 203 2.0 3.0 0.00 0.00 0.00 95 1025.5
20260906034621 54 136 1.0 3.0 0.00 0.00 0.00 95 1025.6
20260906034130 53 169 1.0 3.0 0.00 0.00 0.00 95 1025.6
20260906033621 53 166 1.0 3.0 0.00 0.00 0.00 95 1025.6
20260906033127 53 157 2.0 3.0 0.00 0.00 0.00 95 1025.7
20260906032630 53 169 1.0 3.0 0.00 0.00 0.00 94 1025.6
20260906032130 53 180 1.0 3.0 0.00 0.00 0.00 95 1025.6
20260906031622 53 168 2.0 3.0 0.00 0.00 0.00 95 1025.7
20260906031120 53 173 1.0 4.0 0.00 0.00 0.00 95 1025.6
20260906030627 53 189 1.0 4.0 0.00 0.00 0.00 95 1025.5
20260906030124 53 168 1.0 2.0 0.00 0.00 0.00 95 1025.5
20260906025629 53 143 1.0 2.0 0.00 0.00 0.00 95 1025.7
20260906025139 53 169 1.0 2.0 0.00 0.00 0.00 95 1025.7
20260906024621 53 138 1.0 2.0 0.00 0.00 0.00 95 1025.8
20260906024120 53 135 0.0 2.0 0.00 0.00 0.00 95 1025.9
20260906023629 53 132 1.0 2.0 0.00 0.00 0.00 95 1026.0
20260906023137 54 171 1.0 2.0 0.00 0.00 0.00 95 1026.0
20260906022622 54 165 1.0 2.0 0.00 0.00 0.00 95 1026.1
20260906022124 54 147 1.0 2.0 0.00 0.00 0.00 95 1026.2
20260906021636 54 167 1.0 2.0 0.00 0.00 0.00 95 1026.1
20260906021146 53 200 1.0 2.0 0.00 0.00 0.00 95 1026.3
20260906020632 54 180 1.0 2.0 0.00 0.00 0.00 96 1026.3
20260906020124 53 187 1.0 2.0 0.00 0.00 0.00 95 1026.2
20260906015621 53 187 1.0 2.0 0.00 0.00 0.00 95 1026.1
20260906015114 53 187 1.0 2.0 0.00 0.00 0.00 95 1026.1
20260906014622 53 187 1.0 2.0 0.00 0.00 0.00 95 1026.1
20260906014116 53 187 0.0 1.0 0.00 0.00 0.00 95 1026.0
20260906013624 53 187 0.0 1.0 0.00 0.00 0.00 95 1025.8
20260906013124 53 187 0.0 1.0 0.00 0.00 0.00 95 1026.0
20260906012635 53 187 0.0 1.0 0.00 0.00 0.00 95 1026.0
20260906012114 53 187 0.0 1.0 0.00 0.00 0.00 95 1025.9
20260906011631 53 187 0.0 1.0 0.00 0.00 0.00 95 1026.0
20260906011131 53 187 0.0 1.0 0.00 0.00 0.00 95 1026.0
20260906010642 53 187 0.0 2.0 0.00 0.00 0.00 95 1026.1
20260906010131 53 187 0.0 2.0 0.00 0.00 0.00 95 1026.1
20260906005629 53 187 1.0 2.0 0.00 0.00 0.00 95 1026.0
20260906005111 53 187 1.0 1.0 0.00 0.00 0.00 95 1026.2
20260906004625 53 187 0.0 2.0 0.00 0.00 0.00 95 1026.1
20260906004151 53 187 1.0 2.0 0.00 0.00 0.00 95 1026.0
20260906003640 53 187 0.0 1.0 0.00 0.00 0.00 95 1025.9
20260906003121 53 187 0.0 1.0 0.00 0.00 0.00 95 1026.0
20260906002634 53 187 0.0 1.0 0.00 0.00 0.00 95 1026.0
20260906002133 53 187 1.0 1.0 0.00 0.00 0.00 95 1025.9
20260906001648 53 187 0.0 1.0 0.00 0.00 0.00 95 1026.1
20260906001130 53 187 0.0 1.0 0.00 0.00 0.00 95 1025.9
20260906000644 53 187 1.0 2.0 0.00 0.00 0.00 95 1025.7
20260906000152 53 187 1.0 2.0 0.00 0.00 0.00 95 1025.7
20260905235629 53 273 0.0 1.0 0.00 0.00 0.00 95 1025.8
20260905235130 53 273 0.0 0.0 0.00 0.00 0.00 94 1025.7
20260905234640 53 273 0.0 1.0 0.00 0.00 0.00 94 1025.7
20260905234152 54 273 0.0 1.0 0.00 0.00 0.00 94 1025.8
20260905233628 53 273 1.0 1.0 0.00 0.00 0.00 94 1025.8
20260905233143 53 273 0.0 0.0 0.00 0.00 0.00 94 1025.8
20260905232635 54 273 0.0 0.0 0.00 0.00 0.00 94 1025.9
20260905232135 54 273 0.0 0.0 0.00 0.00 0.00 94 1025.9
20260905231632 54 273 0.0 1.0 0.00 0.00 0.00 94 1026.0
20260905231134 54 273 0.0 2.0 0.00 0.00 0.00 94 1025.9
20260905230630 54 273 1.0 2.0 0.00 0.00 0.00 94 1025.9
20260905230115 54 273 0.0 0.0 0.00 0.00 0.00 94 1025.9
20260905225617 54 273 0.0 0.0 0.00 0.00 0.00 94 1025.8
20260905225147 54 273 0.0 0.0 0.00 0.00 0.00 94 1025.9
20260905224627 54 273 0.0 2.0 0.00 0.00 0.00 94 1025.8
20260905224128 54 273 0.0 2.0 0.00 0.00 0.00 94 1025.7
20260905223641 54 273 0.0 0.0 0.00 0.00 0.00 94 1025.7
20260905223119 54 273 0.0 0.0 0.00 0.00 0.00 94 1025.8
20260905222628 54 273 0.0 0.0 0.00 0.00 0.00 94 1025.8
20260905222137 54 273 0.0 1.0 0.00 0.00 0.00 94 1025.6
20260905221619 54 273 0.0 2.0 0.00 0.00 0.00 94 1025.6
20260905221157 55 273 1.0 2.0 0.00 0.00 0.00 94 1025.7